DW6451 Weather Reports


time (UTC)temp
C
wind
direction
speed
KPH
gust
KPH
rain 1hr
cm
rain 24hr
cm
rain mn
cm
humidity
%
barometer
mb
20260906173058 26 62 0.0 6.4 0.00 0.03 0.00 76 1018.2
20260906171547 25 46 0.0 8.0 0.00 0.03 0.00 77 1018.6
20260906170048 25 309 3.2 8.0 0.00 0.03 0.00 77 1018.7
20260906164546 25 32 1.6 8.0 0.00 0.03 0.00 77 1018.6
20260906163046 25 346 0.0 6.4 0.00 0.03 0.00 78 1018.5
20260906161544 25 345 1.6 6.4 0.00 0.03 0.00 78 1018.6
20260906160045 25 347 0.0 6.4 0.00 0.03 0.00 79 1018.6
20260906154545 25 94 0.0 4.8 0.00 0.03 0.00 79 1018.7
20260906153053 23 94 0.0 3.2 0.00 0.03 0.00 82 1018.6
20260906151548 22 94 0.0 4.8 0.00 0.03 0.00 84 1018.9
20260906150033 21 94 0.0 3.2 0.00 0.03 0.00 86 1019.0
20260906144524 21 94 0.0 4.8 0.00 0.03 0.00 90 1019.1
20260906143033 20 94 0.0 4.8 0.00 0.03 0.00 94 1019.2
20260906141518 19 94 0.0 3.2 0.00 0.03 0.00 98 1019.0
20260906140019 18 94 0.0 3.2 0.00 0.03 0.00 100 1019.2
20260906134511 17 94 0.0 4.8 0.00 0.03 0.00 100 1019.2
20260906133022 16 94 0.0 1.6 0.00 0.03 0.00 100 1019.3
20260906131517 16 94 0.0 0.0 0.00 0.03 0.00 100 1019.3
20260906130009 16 94 0.0 0.0 0.00 0.03 0.00 100 1019.2
20260906124508 15 94 0.0 0.0 0.00 0.03 0.00 100 1019.1
20260906123016 15 94 0.0 0.0 0.00 0.03 0.00 99 1019.2
20260906121505 14 94 0.0 0.0 0.00 0.03 0.00 99 1019.0
20260906120003 14 94 0.0 0.0 0.00 0.03 0.00 99 1018.7
20260906114502 14 94 0.0 0.0 0.00 0.03 0.00 98 1018.5
20260906113102 14 94 0.0 0.0 0.00 0.03 0.00 98 1018.4
20260906111604 14 94 0.0 0.0 0.00 0.03 0.00 98 1018.3
20260906104557 14 94 0.0 0.0 0.00 0.05 0.00 98 1017.8
20260906103108 14 94 0.0 0.0 0.00 0.05 0.00 97 1017.8
20260906101556 14 94 0.0 0.0 0.00 0.05 0.00 97 1017.8
20260906100059 14 94 0.0 0.0 0.00 0.05 0.00 97 1017.8
20260906094553 15 94 0.0 0.0 0.00 0.05 0.00 97 1017.8
20260906093058 15 94 0.0 0.0 0.00 0.05 0.00 97 1017.9
20260906091550 15 94 0.0 0.0 0.00 0.05 0.00 97 1017.9
20260906090101 15 94 0.0 0.0 0.00 0.05 0.00 97 1018.1
20260906084549 15 94 0.0 0.0 0.00 0.10 0.00 97 1018.0
20260906083047 15 94 0.0 0.0 0.00 0.10 0.00 97 1018.0
20260906081547 15 94 0.0 0.0 0.00 0.10 0.00 96 1017.9
20260906080044 15 94 0.0 0.0 0.00 0.10 0.00 96 1017.8
20260906074543 16 94 0.0 0.0 0.00 0.10 0.00 96 1017.7
20260906073056 16 94 0.0 0.0 0.00 0.10 0.00 96 1017.9
20260906071540 16 94 0.0 0.0 0.00 0.10 0.00 96 1018.0
20260906070041 16 94 0.0 0.0 0.00 0.10 0.00 95 1018.0
20260906064538 16 94 0.0 0.0 0.00 0.13 0.00 95 1018.1
20260906063046 16 94 0.0 0.0 0.00 0.13 0.00 95 1017.9
20260906061535 16 94 0.0 0.0 0.00 0.13 0.00 95 1018.0
20260906060032 17 94 0.0 0.0 0.00 0.13 0.00 95 1017.9
20260906054529 17 94 0.0 0.0 0.00 0.13 0.00 94 1017.7
20260906053028 17 94 0.0 0.0 0.00 0.13 0.00 94 1017.6
20260906051545 18 94 0.0 0.0 0.00 0.13 0.00 94 1017.5
20260906050024 18 94 0.0 0.0 0.00 0.13 0.00 94 1017.5
20260906044523 18 94 0.0 1.6 0.00 0.13 0.13 94 1017.5
20260906043023 18 94 0.0 0.0 0.00 0.13 0.13 94 1017.6
20260906041522 18 94 0.0 0.0 0.03 0.13 0.13 95 1017.5
20260906040032 18 94 0.0 1.6 0.03 0.13 0.13 95 1017.2
20260906034526 18 94 0.0 1.6 0.03 0.13 0.13 95 1017.2
20260906033021 18 94 0.0 1.6 0.03 0.13 0.13 95 1017.2
20260906031520 18 94 0.0 1.6 0.00 0.10 0.10 95 1017.1
20260906030019 18 94 0.0 1.6 0.00 0.10 0.10 95 1017.1
20260906024520 18 94 0.0 1.6 0.00 0.10 0.10 95 1016.8
20260906023018 18 94 0.0 3.2 0.00 0.10 0.10 95 1017.0
20260906021518 18 94 0.0 0.0 0.00 0.10 0.10 94 1016.8
20260906020020 18 94 0.0 0.0 0.00 0.10 0.10 94 1016.9
20260906014526 18 94 0.0 0.0 0.00 0.10 0.10 92 1016.7
20260906013017 18 94 0.0 0.0 0.00 0.10 0.10 91 1016.8
20260906011516 18 94 0.0 0.0 0.00 0.10 0.10 90 1016.5
20260906010015 18 94 0.0 0.0 0.00 0.10 0.10 89 1016.6
20260906004515 19 94 0.0 1.6 0.00 0.10 0.10 88 1016.5
20260906003015 19 94 0.0 0.0 0.00 0.10 0.10 87 1016.6
20260906001514 20 94 0.0 1.6 0.00 0.10 0.10 86 1016.9
20260906000013 20 94 0.0 1.6 0.00 0.10 0.10 84 1016.9
20260905234513 20 94 0.0 3.2 0.00 0.10 0.10 82 1016.8
20260905233012 21 96 0.0 3.2 0.00 0.10 0.10 80 1016.8
20260905231521 21 99 0.0 8.0 0.00 0.10 0.10 79 1016.5
20260905230019 22 61 1.6 8.0 0.00 0.10 0.10 78 1016.7
20260905224511 22 144 0.0 6.4 0.00 0.10 0.10 76 1016.8
20260905223011 22 82 1.6 8.0 0.00 0.10 0.10 73 1016.7
20260905221510 23 93 0.0 11.3 0.00 0.10 0.10 72 1016.6
20260905220009 23 65 1.6 9.7 0.00 0.10 0.10 73 1016.8
20260905214509 23 84 1.6 8.0 0.00 0.10 0.10 72 1016.8
20260905213008 23 23 0.0 12.9 0.00 0.10 0.10 74 1016.7
20260905211506 23 17 0.0 6.4 0.00 0.10 0.10 77 1016.8
20260905210003 22 11 1.6 4.8 0.00 0.10 0.10 76 1017.1
20260905204501 22 5 0.0 3.2 0.00 0.10 0.10 78 1017.1
20260905203111 22 5 1.6 9.7 0.00 0.10 0.10 81 1017.2
20260905201558 22 81 0.0 8.0 0.00 0.10 0.10 83 1017.5
20260905200105 22 340 1.6 6.4 0.00 0.10 0.10 82 1017.5
20260905194558 22 309 1.6 6.4 0.00 0.10 0.10 83 1017.5
20260905193056 22 313 0.0 6.4 0.00 0.10 0.10 83 1017.4
20260905191554 22 39 1.6 6.4 0.00 0.10 0.10 85 1017.4
20260905190053 21 42 0.0 6.4 0.00 0.10 0.10 86 1017.2
20260905184550 21 41 0.0 6.4 0.00 0.10 0.10 89 1017.4
20260905183046 21 37 0.0 4.8 0.00 0.10 0.10 91 1017.3
20260905181545 20 37 0.0 4.8 0.00 0.10 0.10 92 1017.5
20260905180045 20 37 0.0 3.2 0.00 0.10 0.10 93 1017.6
20260905174547 20 37 0.0 3.2 0.00 0.10 0.10 94 1017.6